This is the latest recevied weather packets stored in our database for station/object N5ATR. If no packets are shown the sender has not sent any weather packets the latest 10 day(s).
| Time | Temp. | Humidity | Pressure | Rain* | Wind** | Luminosity | Snow |
|---|---|---|---|---|---|---|---|
| 1777857114 | 17.22° C | 33% | 1015.1 hPa | 0 mm | - | 29 W/m² | - |
| 1777856810 | 17.22° C | 32% | 1015.1 hPa | 0 mm | - | 35 W/m² | - |
| 1777856505 | 17.78° C | 32% | 1015.3 hPa | 0 mm | - | 41 W/m² | - |
| 1777856203 | 17.78° C | 31% | 1015.4 hPa | 0 mm | - | 47 W/m² | - |
| 1777855899 | 17.78° C | 30% | 1015.5 hPa | 0 mm | - | 54 W/m² | - |
| 1777855598 | 17.78° C | 29% | 1015.3 hPa | 0 mm | - | 60 W/m² | - |
| 1777855294 | 18.33° C | 29% | 1015.3 hPa | 0 mm | - | 77 W/m² | - |
| 1777854991 | 18.33° C | 28% | 1015.6 hPa | 0 mm | - | 90 W/m² | - |
| 1777854687 | 18.33° C | 27% | 1015.6 hPa | 0 mm | - | 104 W/m² | - |
| 1777854384 | 18.33° C | 27% | 1015.4 hPa | 0 mm | - | 121 W/m² | - |
| 1777854082 | 18.89° C | 27% | 1015.4 hPa | 0 mm | - | 137 W/m² | - |
| 1777853780 | 18.33° C | 27% | 1015.7 hPa | 0 mm | - | 151 W/m² | - |
| 1777853475 | 18.89° C | 27% | 1015.5 hPa | 0 mm | - | 165 W/m² | - |
| 1777853173 | 18.33° C | 27% | 1015.5 hPa | 0 mm | - | 179 W/m² | - |
| 1777852870 | 18.89° C | 26% | 1015.4 hPa | 0 mm | - | 194 W/m² | - |
| 1777852568 | 18.33° C | 26% | 1015.7 hPa | 0 mm | - | 208 W/m² | - |
| 1777852265 | 18.33° C | 27% | 1015.5 hPa | 0 mm | - | 223 W/m² | - |
| 1777851963 | 18.89° C | 26% | 1015.6 hPa | 0 mm | - | 238 W/m² | - |
| 1777851660 | 18.89° C | 26% | 1015.5 hPa | 0 mm | - | 254 W/m² | - |
| 1777851357 | 18.89° C | 26% | 1015.6 hPa | 0 mm | - | 271 W/m² | - |
| 1777851052 | 18.33° C | 27% | 1016 hPa | 0 mm | - | 287 W/m² | - |
| 1777850750 | 18.33° C | 27% | 1015.6 hPa | 0 mm | - | 303 W/m² | - |
| 1777850447 | 18.89° C | 26% | 1015.7 hPa | 0 mm | - | 319 W/m² | - |
| 1777850145 | 18.89° C | 26% | 1015.7 hPa | 0 mm | - | 334 W/m² | - |
| 1777849841 | 18.89° C | 25% | 1015.9 hPa | 0 mm | - | 350 W/m² | - |
* Rain latest hour (hover to see other rain measurements)
** Current wind speed in m/s (hover to see current wind gust speed)